IRIDIUM 137 (43076 NORAD) Tracking and Keplerian Element Data

This shows tracking and keplerian element data for the satellite.

Feedback or suggestion? Click here.




ElementValue
Catalog43076
NameIRIDIUM 137
Epoch Orbit432
Epoch Day21.50851171
Epoch Year2018
RAAN164.4391
Inclination86.5285
Eccentricity0.0002571
Argument of Perigee102.8412
Mean Anonmoly257.3084
Mean Motion14.56977426
Decay Rate1.18E-06
L11 43076U 17083G 18021.50851171 .00000118 00000-0 21371-4 0 9997
L22 43076 86.5285 164.4391 0002571 102.8412 257.3084 14.56977426 4326

Live tracking and technical data element details for IRIDIUM 137 (NORAD 43076). IRIDIUM 137 can be tracked NOW for your location showing map with azimuth and elevation plus other details from your city location.

Track the satellite on the map from your city or location and see movement details for azimuth, elevation, latitude, longitude, range, height, and movement on the map or in text.







IsCatalogInMostPopularTable: catalog: 43076, numindb: 154
Update: records affected: 1



GetName: 43076 IRIDIUM 137

Hit Count: updated at: Sat, 15 Dec 2018 18:34:28 GMT